Cloud_Cover
1 0 0 5 3 0 5 6 100 69 79 83 15 92 82 25 96 67 99 12 3 0 2 3 5 8 22 5 5 5 5 4 4 0 0 5 5 7 4 0 0 0 0 0 0 0 0 0 0
62 0 0 0 3 5 5 12 75 53 98 85 49 100 100 100 100 56 100 100 5 4 5 5 5 5 58 5 47 5 5 4 2 0 0 0 0 0 0 0 0 0 0 0 0 0 0 0 0
100 67 0 0 5 5 5 16 100 61 100 100 8 100 100 100 100 100 100 100 5 5 5 5 5 5 5 10 5 30 5 5 5 5 1 0 0 0 0 0 0 0 0 0 0 0 0 0 0
99 100 26 0 2 63 96 100 100 15 100 100 100 100 100 100 100 100 100 33 5 5 5 16 5 5 5 6 27 96 5 5 5 5 0 0 0 0 0 0 0 0 0 0 0 0 0 0 0
5 98 89 2 0 5 5 100 99 93 53 100 100 100 100 100 100 100 100 100 55 9 5 5 5 5 0 19 10 5 5 5 0 0 0 0 0 0 0 0 0 0 0 0 0 0 0 0 0
5 5 72 7 0 5 86 85 100 53 50 100 100 100 100 100 100 100 100 100 18 5 10 5 7 5 5 74 5 5 5 3 0 0 0 0 0 0 0 0 0 0 0 0 0 0 0 0 0
7 8 5 100 66 41 41 26 100 5 6 100 100 100 100 100 100 100 100 92 5 5 86 25 5 4 5 5 5 3 0 0 0 0 0 0 0 0 0 0 0 0 0 0 0 0 5 4 3
66 74 77 53 100 95 100 96 98 8 5 49 100 100 100 100 100 100 100 7 5 5 15 5 0 5 5 0 0 0 0 0 0 0 0 0 0 0 0 0 0 0 0 0 0 3 5 5 8
95 63 44 5 98 100 100 100 7 60 9 45 100 69 44 94 100 93 94 30 5 5 5 0 0 0 0 0 1 1 0 0 0 0 0 2 0 0 0 0 0 0 4 5 5 5 26 5 5
6 97 82 32 97 100 100 73 66 14 20 15 5 5 8 99 12 14 13 7 5 4 2 0 0 0 0 0 1 0 0 0 0 0 0 0 0 0 0 0 0 5 4 5 5 5 5 5 3
12 9 100 100 34 13 85 61 5 12 81 97 33 10 0 40 11 7 5 5 4 1 0 0 0 0 0 0 0 0 0 0 0 0 0 0 0 0 0 0 0 5 5 5 5 5 5 5 5
97 43 100 100 65 5 89 100 93 7 73 78 95 65 100 5 5 5 5 5 5 4 4 0 0 0 0 0 0 0 0 0 0 0 0 0 0 0 0 0 0 0 0 5 5 5 5 5 5
100 73 100 100 100 49 10 100 100 79 36 7 42 92 71 51 7 5 29 64 5 3 0 0 0 0 0 0 0 0 1 1 9 3 4 1 0 0 0 0 3 1 3 5 5 5 5 5 4
98 100 64 100 99 88 56 100 100 75 97 57 100 99 97 96 96 88 100 100 47 1 5 7 4 5 3 1 5 5 5 8 8 24 0 0 0 3 0 0 0 2 8 5 27 14 5 2 5
86 99 63 55 97 24 100 70 100 100 97 100 74 6 68 81 86 98 43 8 17 5 37 68 7 5 5 5 5 5 5 2 20 15 4 8 0 0 0 0 0 5 11 7 5 0 1 3 3
88 93 8 78 100 23 82 5 100 100 100 62 100 100 100 98 31 31 97 13 5 5 5 5 33 26 92 59 5 5 5 16 19 76 96 0 0 0 0 0 13 58 50 88 45 13 1 2 1
100 100 68 100 100 75 40 25 100 100 94 5 71 100 100 100 97 27 44 12 10 57 8 45 11 5 43 6 8 8 46 22 100 100 100 60 0 0 0 24 97 100 85 5 6 2 4 1 4
34 100 100 100 100 68 5 12 100 100 100 98 82 100 100 100 100 91 100 80 75 53 88 5 5 5 5 5 5 5 3 87 79 100 100 90 0 6 75 14 22 54 4 20 6 1 0 0 0
100 100 100 100 100 6 100 27 100 100 100 100 100 95 100 100 100 100 89 100 92 92 100 100 62 5 5 13 12 5 0 0 0 0 94 94 10 18 5 79 32 17 5 0 0 5 0 0 0
99 100 100 100 99 3 100 30 100 100 100 100 100 100 100 100 100 100 93 99 100 63 32 29 25 5 5 5 5 5 6 5 5 5 92 100 25 49 89 97 33 2 2 3 24 5 0 0 0
3 87 100 100 98 81 49 80 100 100 100 100 100 100 100 100 93 100 98 100 100 64 70 55 27 20 5 8 23 9 29 5 5 23 100 42 37 15 84 34 3 3 3 72 26 0 2 0 0
0 44 100 100 100 89 23 11 100 100 100 100 100 100 100 100 100 100 100 100 50 32 6 38 31 5 5 38 28 5 1 5 5 5 26 84 70 38 2 5 2 87 3 0 0 5 0 0 0
2 100 100 100 100 100 34 6 8 100 100 100 100 100 100 100 100 99 100 99 100 70 82 43 5 11 4 5 5 5 5 0 0 5 12 20 4 0 5 2 5 5 3 5 0 0 0 0 0
0 46 100 100 100 100 43 66 100 100 100 100 100 100 100 100 100 100 100 100 100 100 90 25 34 40 41 6 26 50 5 0 1 3 5 5 5 5 13 29 5 48 100 9 0 0 0 0 0
4 99 55 95 100 100 94 45 100 83 100 100 100 100 100 100 100 100 100 100 99 92 100 100 100 100 100 98 75 5 3 22 2 3 5 5 5 5 5 19 76 100 76 35 0 0 0 0 0
5 5 58 92 100 100 99 83 58 77 19 100 100 100 100 100 100 100 100 100 100 100 100 100 100 97 66 5 5 96 100 100 35 7 5 5 2 11 37 98 7 5 0 0 0 0 0 0 0
28 1 14 100 100 98 100 88 6 4 100 99 100 100 100 100 100 100 100 100 100 100 99 100 100 95 94 100 100 100 99 8 49 5 15 46 39 91 10 69 5 0 0 0 0 0 0 5 0
5 23 4 29 100 100 100 100 100 29 5 40 99 97 67 16 18 25 37 98 81 5 14 64 100 100 100 100 59 100 35 5 2 0 25 18 86 100 62 5 5 1 3 5 5 5 5 5 3
6 34 5 80 100 100 100 100 100 100 87 56 50 96 30 62 26 14 27 70 6 100 100 100 45 100 100 100 27 67 25 44 100 100 100 100 100 58 5 5 4 3 5 5 14 23 10 5 0
99 95 30 60 94 100 100 100 100 100 100 79 5 4 3 3 82 100 100 100 99 100 95 15 6 5 5 51 98 97 100 100 100 100 100 30 5 6 5 5 5 53 67 41 32 5 5 2 0